Прошивки –  Каталог навигаторов –  Восстановление навигатора

Вернуться   Мир Автомобильных навигаторов > PNA / PND Устройства > Автомагнитолы
Регистрация ФайлыПравила форумаБан-лист Справка Календарь Поиск Сообщения за день Все разделы прочитаны

Важная информация


     
Ответ
 
Опции темы
Старый 02.03.2014, 11:46   #1
turinec
Новичок
Доп. информация
По умолчанию Intro InCar CHR - 2 din (магнитолы НЕ на платформе i9/i10/D2280)

[[Ссылки могут видеть только зарегистрированные пользователи. ]]>

Владельцы InCar CHR-7ххх - присоединяйтесь. Будем думать, что с ней можно сделать, а то пока одному страшновато.
[[Ссылки могут видеть только зарегистрированные пользователи. ]]>
Все остальное по этой магнитоле.
Картинки



Характеристики
Характеристики отсюда [[Ссылки могут видеть только зарегистрированные пользователи. ]]>
Параметры дисплея 7" сенсорный, широкоформатный 16:9 TFT LCD, высокого разрешения, 800 х 480 точек, 400 cd/m²
Встроенный GPS приемник, Навигационное ПО в комплекте на SD/MMC карте памяти Навител (лицензия)
Операционная система Windows CE 6.0
Возможность выхода в Интернет, отображение пробок на дороге опционально (модем GPS 3G)
Возможность подключения дополнительно фронтальной камеры и активации ее с дисплея есть
Подсветка кнопок изменяемая
Процессор ARM (с вентилятором для охлаждения)
Встроенный FM/AM тюнер есть, 30 станции предустановки
Удобный русифицированный пользовательский интерфейс есть
Выбор логотипа загрузки** есть
Поддержка CD/DVD без CD/DVD привода
Поддержка SD/USB есть
Поддержка Bluetooth, записная книжка контактов есть
Поддержка форматов файлов*** mp3, wma, wave, mpeg1, mpeg2, mpeg4, wmv, jpeg, gif, bmp
Штатное подключение к кнопкам руля**** есть
Возможность подключения дополнительного монитора есть
Подключение камеры заднего вида есть
TV-тюнер встроенный аналоговый SECAM
Аудио выходы на усилитель есть (модель CDA-4.100)
Отдельный выход на сабвуфер есть (модель INT-801SW)
Возможность подключения iPod/iPhone есть, кабель в комплекте
Пульт Д/У в комплекте


Видео обзор небольшой здесь
[[Ссылки могут видеть только зарегистрированные пользователи. ]]>


PortTool Log v. 1, 0, 0, 23
PortTool Log v. 1, 0, 0, 23
PortTool execution path: \Storage Card\?????_W-CE\PortTool_v1.0.0.23\PortTool.exe
CPU: ARM rev.7
Path to navi: [ ]
USB: [Async/Flash card/CardReader]
UUID in About: [yes/no]
Internet: [yes/no]
RAM: total: 195 Mb, avail: 137 Mb
UUID: 16 byte: 00 00 00 00 00 00 00 00 - 00 00 00 00 00 00 00 0A (0000000000000000000000000000000A)
UUID check: 0
Screen: 800x480 16 bit
OS Version: 6
Battery percent: 0
wininet.dll: yes
OEM info: 'Shenzhen_Yecon_Industry' 48 byte: 53 00 68 00 65 00 6E 00 7A 00 68 00 65 00 6E 00 5F 00 59 00 65 00 63 00 6F 00 6E 00 5F 00 49 00 6E 00 64 00 75 00 73 00 74 00 72 00 79 00 00 00
THUMB: yes
MemAccess: Mapping - 126 ms malloc() - 125 ms Factor: 1 (ok)
FlashCards
name: Residentflash
name: DSK9:
Disk size: 2.93 Mb 3067904 bytes
flashID: none
Write/Read test: Ok
Mapping: Not enough free space

name: Residentflash3
name: DSK9:
Disk size: 4.92 Mb 5156864 bytes
flashID: none
Write/Read test: Ok
Mapping: Not enough free space

name: Residentflash2
name: DSK9:
Disk size: 50.24 Mb 52678656 bytes
flashID: none
Write/Read test: Ok
Mapping: Not enough free space

name: SDMMC
name: DSK1:
Disk size: 7376.00 Mb bytes
flashID: 44 41 41 33 41 45 36 38 00 00 . 32 37
flashID (for registration): 27DAA3AE6800
Write/Read test: Ok
Mapping: AVR Write: 388 KB/s
AVR Read: 0 KB/s
Mapping: Failed
Mapping time: 48 sec, 0 %

name: Storage Card
name: DSK2:
Disk size: 3804.00 Mb bytes
flashID: 30 30 30 30 30 30 30 41 00 00 . 31 31
flashID (for registration): 110000000A00
Write/Read test: Ok
Mapping: AVR Write: 599 KB/s
AVR Read: 0 KB/s
Mapping: Failed
Mapping time: 42 sec, 0 %

name: USBDisk
name: DSK5:
Disk size: 7629.14 Mb bytes
flashID: none
Write/Read test: Ok
Mapping: AVR Write: 371 KB/s
AVR Read: 0 KB/s
Mapping: Failed
Mapping time: 50 sec, 0 %

GPS:
$GPGGA,083714.000,5602.25775,N,09252.59933,E,1,8,1 .32,236.2,M,-35.5,M,,*7C
$GPGSA,A,3,31,23,25,14,12,01,32,20,,,,,2.07,1.32,1 .59*0A
$GPGSV,3,1,11,31,80,189,42,32,60,231,35,20,41,292, 43,25,40,064,48*D
72
$GPGSV,3,2,11,14,36,107,38,12,15,033,28,01,14,257, 40,23,12,286,25*71
$GPGSV,3,3,11,04,03,352,,29,02,093,,43,-99,000,*63
$GPRMC,083714.000,A,5602.25775,N,09252.59933,E,0.0 11,78.28,010314,,A*43
$D
GPVTG,78.28,T,,M,0.011,N,0.021,K,A*0B
$GPGGA,083715.000,5602.25775,N,09252.59933,E,1,8,1 .32,236.2,M,-35.5,M,,*7D
$GPGSA,A,3,31,23,25,14,12,01,32,20,,,,,2.07,1.32,1 .59*0A
$GPGSV,3,1,11,31,80,189,42,D
32,60,231,35,20,41,292,43,25,40,064,48*72
$GPGSV,3,2,11,14,36,107,38,12,15,033,28,01,14,257, 40,23,12,286,25*71
$GPGSV,3,3,11,04,03,352,,29,02,093,,43,-99,000,*63
$GPRMC,083715.000,A,5602.25775,N,09D
Port: COM1:
Rate: 57600

$GPGGA,083717.000,5602.25775,N,09252.59934,E,1,8,1 .32,236.2,M,-35.5,M,,*78
$GPGSA,A,3,31,23,25,14,12,01,32,20,,,,,2.07,1.32,1 .59*0A
$GPGSV,3,1,11,31,80,189,42,32,60,231,35,20,41,292, 43,25,40,064,48*D
72
$GPGSV,3,2,11,14,36,107,38,12,15,033,28,01,14,257, 40,23,12,286,25*71
$GPGSV,3,3,11,04,03,352,,29,02,093,,43,-99,000,*63
$GPRMC,083717.000,A,5602.25775,N,09252.59934,E,0.0 15,78.28,010314,,A*43
$D
GPVTG,78.28,T,,M,0.015,N,0.028,K,A*06
$GPGGA,083718.000,5602.25775,N,09252.59934,E,1,7,1 .36,236.2,M,-35.5,M,,*7C
$GPGSA,A,3,31,25,14,12,01,32,20,,,,,,2.15,1.36,1.6 7*01
$GPGSV,3,1,11,31,80,189,42,32D
,60,231,35,20,41,292,43,25,40,064,48*72
$GPGSV,3,2,11,14,36,107,38,12,15,033,28,01,14,257, 40,23,12,286,24*70
$GPGSV,3,3,11,04,03,352,,29,02,093,,45,-99,000,*65
$GPRMC,083718.000,A,5602.25775,N,0925D
Port: COM2:
Rate: 57600

$GPGGA,083724.000,5602.25773,N,09252.59936,E,1,8,1 .32,236.2,M,-35.5,M,,*7C
$GPGSA,A,3,31,23,25,14,12,01,32,20,,,,,2.07,1.32,1 .59*0A
$GPGSV,3,1,11,31,80,189,42,32,60,231,35,20,41,292, 43,25,40,064,48*D
$GPGGA,083730.000,5602.25773,N,09252.59939,E,1,8,1 .32,236.3,M,-35.5,M,,*77
$GPGSA,A,3,31,23,25,14,12,01,32,20,,,,,2.06,1.32,1 .59*0B
$GPGSV,3,1,11,31,80,189,42,32,60,231,34,20,41,292, 43,25,40,064,48*D
$GPGGA,083736.000,5602.25772,N,09252.59941,E,1,6,2 .11,236.2,M,-35.5,M,,*72
$GPGSA,A,3,31,25,14,01,32,20,,,,,,,4.35,2.11,3.81* 0A
$GPGSV,3,1,11,31,80,189,42,32,60,231,34,20,41,292, 44,25,40,064,48*74
D
$GPGGA,083737.000,5602.25771,N,09252.59941,E,1,8,1 .32,236.2,M,-35.5,M,,*7C
$GPGSA,A,3,31,23,25,14,12,01,32,20,,,,,2.06,1.32,1 .59*0B
$GPGSV,3,1,11,31,80,189,42,32,60,231,34,20,41,292, 44,25,40,064,48*D
74
$GPGSV,3,2,11,14,35,107,37,12,15,033,28,01,14,257, 41,23,13,286,27*7F
$GPGSV,3,3,11,04,03,352,,29,02,093,,49,-99,000,*69
$GPRMC,083737.000,A,5602.25771,N,09252.59941,E,0.0 05,78.28,010314,,A*46
$D
$GPGGA,083742.000,5602.25770,N,09252.59943,E,1,8,1 .32,236.2,M,-35.5,M,,*7D
$GPGSA,A,3,31,23,01,25,14,12,32,20,,,,,2.06,1.32,1 .58*0A
$GPGSV,3,1,11,31,80,188,42,32,60,231,34,20,41,292, 44,25,40,064,48*D
$GPGGA,083748.000,5602.25770,N,09252.59944,E,1,8,1 .59,236.2,M,-35.5,M,,*7D
$GPGSA,A,3,31,23,01,25,14,12,32,20,,,,,2.62,1.59,2 .08*03
$GPGSV,3,1,11,31,80,188,42,32,60,231,31,20,41,292, 44,25,40,064,48*D
$GPGGA,083754.000,5602.25769,N,09252.59944,E,1,8,1 .31,236.1,M,-35.5,M,,*75
$GPGSA,A,3,31,23,01,25,14,12,32,20,,,,,2.06,1.31,1 .58*09
$GPGSV,3,1,11,31,80,188,42,32,60,231,29,20,41,292, 45,25,40,064,48*D
ClearCommError() failed
ClearCommError() failed
ClearCommError() failed
ClearCommError() failed
ClearCommError() failed
ClearCommError() failed
String test: Ok
System date/time: 11:38:07 01.03.2014 (11:38:07, 3/1/2014


Смена часового пояса описана там [[Ссылки могут видеть только зарегистрированные пользователи. ]]> Прошивка [[Ссылки могут видеть только зарегистрированные пользователи. ]]>
turinec вне форума  
7 пользователя(ей) сказали cпасибо:
Старый 18.04.2014, 18:54   #16
Flaner55
Новичок
Доп. информация
По умолчанию

Цитата:
Сообщение от turinec Посмотреть сообщение
Разъем ДЖЕК просто обрезал и два провода прикрутил к выходам магнитолы по инструкции и экран провода на массу. Можно и разъем-маму джека прикрутить, просто под рукой не было когда делал.А ночной режим отключил просто провод перерезал который по схеме называется "подсветка" (оранжевый). Есть такое, слабоватый экран у этой модельки.
Про карты ни чем не смогу помочь.

А где там выход на джойстик, номера контактов???
Flaner55 вне форума  
Старый 18.04.2014, 22:21   #17
Viktor7777
Новичок
Доп. информация
По умолчанию

Всем добрый вечер! Недавно стал владельцем InCar CHR-7120. Установлена на Ниссан Кашкай. Пока безмерно доволен! Единственно что хотелось бы спросить, может кто устанавливал более новую версию навитела и карты? Заранее благодарен за ссылку. Спасибо!
Viktor7777 вне форума  
Старый 18.04.2014, 22:24   #18
frog2050
Гуру
 
Аватар для frog2050
Доп. информация
По умолчанию

Viktor7777, В документацию гляньте, там есть ключь активации, по нему пройдите регистрацию на сайте Навитела и обновите до новой версии в личном кабинете.
__________________
[[Ссылки могут видеть только зарегистрированные пользователи. ]]> Представьте что у вас дома есть DVD медиа плеер с выходом HDMI и есть комп, тоже с выходом HDMI и оба они подключены к телеку.
Так вот, скажите как ваш комп увидит флешку вставленную в DVD плеер, хотя телек и показывает содержимое вашей флешки и комп тоже показывает на телеке.
Может так легче понять, как устроен медиа комбайн в машине ?
Сейчас у меня Citroen C4L Sedan с разными магнитолами
Раздача читательских билетов - бесплатно !!!
За что раздаётся :
[[Ссылки могут видеть только зарегистрированные пользователи. ]]>
frog2050 вне форума  
Пользователь сказал cпасибо:
Старый 21.04.2014, 13:35   #19
ruz137
Вникающий
Доп. информация
По умолчанию

подключил старый модем интерне работает и яндекс пробки

Добавлено через 28 минут
не могу сбросить все настройки кнопкой резет сбрасывается только радио
ruz137 вне форума  
Старый 22.04.2014, 21:33   #20
Kakalaka1
Вникающий
Доп. информация
По умолчанию

Поставил в Land Rover freelander 2004 через переходник Intro ISO FO-03, воткнул модем zte mf180 - подключился сразу и без каких либо дополнительных настроек. Навител пробки показывает. Но есть и "танцы с бубном"
1. Проблема: Не сохраняются настройки радиостанций после вытаскивания ключа из замка. РЕШЕНИЕ: В разъёме ISO от магнитолы перепутаны провода BATT и ACC(красный и жёлтый) - меняем местами провода и всё работает как надо.
2. Штатные кнопки freelander подключаются к этой магнитоле без дополнительных преобразователей. В штатной проводке машины находим два контакта: "Remote line" и "Remote ground". Первый соединяем с проводом от магнитолы с пометкой "wheel control"(там их два - берём любой), а второй соединяем с "землей"(я подключил к чёрному проводу на ISO разъёме. Всё работает.
Kakalaka1 вне форума  
Старый 25.04.2014, 15:49   #21
turinec
Новичок
Доп. информация
По умолчанию

При установке, тоже сказали, что + и ACC почему то не так как на всех разъемах. Поменяли местами и все нормально сохраняется.

Добавлено через 3 минуты
Цитата:
Сообщение от Kakalaka1 Посмотреть сообщение
2. Время синхронизируется по GPS, а там на час отклонение Как откалибровать не знаю.

Отключать синхронизацию и ставить часы вручную. Медведев поменял время, а спутники видимо не послушались, да и сейчас все вроде опять обратно повернут по часовым поясам.
turinec вне форума  
Старый 25.04.2014, 18:38   #22
jauvit
Новичок
Доп. информация
По умолчанию

Цитата:
Сообщение от Kakalaka1 Посмотреть сообщение
1. Не сохраняются настройки радиостанций после вытаскивания ключа из замка

У меня то же самое было, ставил неделю назад, сразу же проверил проводку, всё нормально. Через некоторое время само собой исправилось, возможно аккумулятор (батарейка) был подсевший.
jauvit вне форума  
Пользователь сказал cпасибо:
Старый 05.05.2014, 13:56   #23
Flaner55
Новичок
Доп. информация
По умолчанию

Второй раз перестало запускаться навигаторное ПО. На карте памяти переименованы папки и файлы, имена кракозябры. Это что вирусная активность? Откуда он, из внутренней памяти магнитолы??? Заранее спасибо за ответы.
Flaner55 вне форума  
Старый 05.05.2014, 15:14   #24
frog2050
Гуру
 
Аватар для frog2050
Доп. информация
По умолчанию

Цитата:
Сообщение от Flaner55 Посмотреть сообщение
На карте памяти переименованы папки и файлы, имена кракозябры. Это что вирусная активность?

Это выключение питания в момент записи на карту памяти.
Обычно в этом виноват левый навител.
__________________
[[Ссылки могут видеть только зарегистрированные пользователи. ]]> Представьте что у вас дома есть DVD медиа плеер с выходом HDMI и есть комп, тоже с выходом HDMI и оба они подключены к телеку.
Так вот, скажите как ваш комп увидит флешку вставленную в DVD плеер, хотя телек и показывает содержимое вашей флешки и комп тоже показывает на телеке.
Может так легче понять, как устроен медиа комбайн в машине ?
Сейчас у меня Citroen C4L Sedan с разными магнитолами
Раздача читательских билетов - бесплатно !!!
За что раздаётся :
[[Ссылки могут видеть только зарегистрированные пользователи. ]]>
frog2050 вне форума  
Старый 05.05.2014, 18:33   #25
Flaner55
Новичок
Доп. информация
По умолчанию

Хмм, Навител лицензионный, карта памяти тоже. Но запущен был оба раза МЯК 3.90, может в нём причина?
Flaner55 вне форума  
Старый 05.05.2014, 19:38   #26
khersonvip
Новичок
Доп. информация
По умолчанию

Поставил себе программу навигации Igo Primo 9.6 и свежие карты, работает стабильно.
Также вывел себе в подрулевую колонку кнопки управления магнитолой, делается просто и быстро. Теперь управляю магнитолой не отрывая рук от руля.

[[Ссылки могут видеть только зарегистрированные пользователи. ]]>
khersonvip вне форума  
Старый 06.05.2014, 16:28   #27
Flaner55
Новичок
Доп. информация
По умолчанию

И третий раз полетела микро SD, форматирую записываю заново и тот-же результат спустя несколько вкл-выкл

Добавлено через 4 минуты
Цитата:
Сообщение от khersonvip Посмотреть сообщение
Поставил себе программу навигации Igo Primo 9.6 и свежие карты, работает стабильно.
Также вывел себе в подрулевую колонку кнопки управления магнитолой, делается просто и быстро. Теперь управляю магнитолой не отрывая рук от руля.

А подробности как кнопки делал?
Flaner55 вне форума  
Старый 08.05.2014, 18:26   #28
khersonvip
Новичок
Доп. информация
По умолчанию

Цитата:
третий раз полетела микро SD

Попробуй заменить свою SD на другую, возможно проблема в самой SD.

Цитата:
А подробности как кнопки делал?

Все просто, взял обычные миниатюрные кнопки на радиорынке и подключил по схеме.
[[Ссылки могут видеть только зарегистрированные пользователи. ]]> Номинал сопротивлений может быть любой (от 5к до 20к каждое), но сумма всех не должна превышать 150к. Подключаем, заходим в режим програмирования и каждую кнопку програмируем как себе удобно.
Кнопки можно и на руль вывести, лишь бы был один свободный провод в подрулевом шлейфе.
Всего для програмирования у нас доступно 9 кнопок, но реально удобно использовать только 7, т.к. Mute и Mode не практичны. Функция Mute работает и через кнопку IO при коротком нажатии, а Mode запускает по очереди все приложения, что бесит!

P.S. сейчас буду покупать диагностический OBD шнур для своего авто, подключу его через свободный USB, поставлю программу OBDMobile для мониторинга и диагности авто.
khersonvip вне форума  
Старый 11.05.2014, 18:49   #29
khersonvip
Новичок
Доп. информация
По умолчанию

Попробывал поставить несколько диагностических прог для нашего аппарата, пошла и отлично работает HobDrive ("это мощный бортовой компьютер в вашем автомобиле. Он работает на платформах Андроид, Windows Mobile, АвтоКомпьютерах и на встроенных автомагнитолах". Подробно на сайте поддержки. [[Ссылки могут видеть только зарегистрированные пользователи. ]]> Прога запустилась, подхватила данные с GPS и Блютуз, работет без тормазов.
khersonvip вне форума  
Старый 26.05.2014, 14:20   #30
pvl_mksv
Новичок
Доп. информация
По умолчанию

(21), А как долго это длилось?
(All) Кто смотрит видео на сем девайсе? Что там по кодекам, а то звук есть, картинки нет.
Кто-нибудь смог накатить tcpmp туда?
Спасибо!
pvl_mksv вне форума  
Ответ

Опции темы



Текущее время: 03:42. Часовой пояс GMT +3.


Powered by vBulletin® Version 3.8.9
Copyright ©2000 - 2017, Jelsoft Enterprises Ltd. Перевод: zCarot

Копирайты
Время генерации страницы 0.14686 секунды с 12 запросами